Yakima, WA
on Tuesday, January 15, 2013

Tuesday
Previous Day Next Day
Daily Summary
 ActualAverageRecord
Temperature
Mean Temperature °F 31°F  
Max Temperature 40°F 38°F 61°F (2014)
Min Temperature 17°F 23°F -10°F (1950)
Degree Days
Heating Degree Days 36 34  
Month to date heating degree days 511 534  
Since 1 July heating degree days 2725 3197  
Cooling Degree Days 0 0  
Month to date cooling degree days 0 0  
Year to date cooling degree days 0 0  
Moisture
Dew Point 19°F   
Average Humidity 69    
Maximum Humidity 84    
Minimum Humidity 54    
Precipitation
Precipitation 0.00 in 0.04 in 0.67 in (1956)
Month to date precipitation 0.09 0.62  
Year to date precipitation 0.09 0.62  
Snow
Snow 0.00 in 0.10 in 4.10 in (1971)
Month to date snowfall 1.1 3.2  
Year to date snowfall 1.1 3.2  
Since 1 July snowfall 15.3 16.2  
Snow Depth 0.00 in   
Wind
Wind Speed 2 mph   
Max Wind Speed 7 mph   
Max Gust Speed 21 mph   
Visibility 6 miles   
Events     

Key: T is trace of precipitation, MM is missing value
Source: NWS Daily Summary
Time(PST)TemperatureDew PointHumidity Pressure Visibility Wind DirectionWind SpeedGust SpeedPrecipitationEvents Conditions
12:53 AM 21.0°F 16.0°F 81% 30.53 in 6.0 miles West 4.6 mph - N/A   Haze
1:53 AM 21.0°F 16.0°F 81% 30.55 in 7.0 miles WSW 4.6 mph - N/A   Clear
2:53 AM 21.2°F 15.8°F 80% 30.53 in 7.0 miles NNW 3.5 mph - N/A   Clear
3:53 AM 21.0°F 16.0°F 81% 30.57 in 7.0 miles NW 4.6 mph - N/A   Clear
4:53 AM 19.9°F 14.0°F 78% 30.57 in 8.0 miles Calm Calm - N/A   Clear
5:53 AM 18.0°F 14.0°F 84% 30.58 in 7.0 miles West 4.6 mph - N/A   Clear
6:53 AM 19.0°F 14.0°F 81% 30.60 in 6.0 miles Calm Calm - N/A   Haze
7:53 AM 17.1°F 12.0°F 81% 30.63 in 5.0 miles West 3.5 mph - N/A   Haze
8:53 AM 21.0°F 15.1°F 78% 30.64 in 6.0 miles Calm Calm - N/A   Haze
9:53 AM 26.1°F 19.9°F 78% 30.66 in 5.0 miles Calm Calm - N/A   Haze
10:53 AM 30.0°F 21.9°F 72% 30.65 in 7.0 miles West 3.5 mph - N/A   Clear
11:53 AM 34.0°F 23.0°F 64% 30.63 in 7.0 miles Calm Calm - N/A   Clear
12:53 PM 36.0°F 24.1°F 62% 30.61 in 6.0 miles Calm Calm - N/A   Haze
1:53 PM 37.9°F 24.1°F 57% 30.61 in 6.0 miles Calm Calm - N/A   Haze
2:53 PM 39.9°F 24.1°F 53% 30.61 in 6.0 miles Calm Calm - N/A   Haze
3:53 PM 39.0°F 25.0°F 57% 30.61 in 6.0 miles Calm Calm - N/A   Haze
4:53 PM 32.0°F 23.0°F 69% 30.62 in 6.0 miles SW 3.5 mph - N/A   Haze
5:53 PM 28.9°F 21.9°F 75% 30.63 in 7.0 miles Calm Calm - N/A   Clear
6:53 PM 26.1°F 21.0°F 81% 30.63 in 6.0 miles Calm Calm - N/A   Haze
7:53 PM 24.1°F 19.0°F 81% 30.63 in 5.0 miles WNW 3.5 mph - N/A   Haze
8:53 PM 21.9°F 17.1°F 82% 30.63 in 4.0 miles West 4.6 mph - N/A   Haze
9:53 PM 21.0°F 16.0°F 81% 30.63 in 4.0 miles Calm Calm - N/A   Haze
10:53 PM 19.0°F 14.0°F 81% 30.62 in 5.0 miles West 4.6 mph - N/A   Haze
11:53 PM 19.9°F 15.1°F 81% 30.61 in 5.0 miles NW 3.5 mph - N/A   Haze
Moon Phase
Jan. 15 Jan. 18 Jan. 26 Feb. 03 Feb. 10
Sunrise:07:41 AM (PST) Moon Rise:09:31 AM (PST)1/15
Sunset:04:42 PM (PST) Moon Set:09:58 PM (PST)1/15

Copyright © 2014 The Weather Underground, Inc.